Year,Month,Day,Hour,Minute,Value (Times are PST for temperature in C)
2015,04,05,00,00,4.60
2015,04,05,00,01,4.60
2015,04,05,00,02,4.60
2015,04,05,00,03,4.60
2015,04,05,00,04,4.60
2015,04,05,00,05,4.60
2015,04,05,00,06,4.60
2015,04,05,00,07,4.60
2015,04,05,00,08,4.60
2015,04,05,00,09,4.60
2015,04,05,00,10,4.60
2015,04,05,00,11,4.50
2015,04,05,00,12,4.50
2015,04,05,00,13,4.50
2015,04,05,00,14,4.50
2015,04,05,00,15,4.50
2015,04,05,00,16,4.50
2015,04,05,00,17,4.50
2015,04,05,00,18,4.50
2015,04,05,00,19,4.50
2015,04,05,00,20,4.50
2015,04,05,00,21,4.50
2015,04,05,00,22,4.50
2015,04,05,00,23,4.50
2015,04,05,00,24,4.50
2015,04,05,00,25,4.60
2015,04,05,00,26,4.60
2015,04,05,00,27,4.60
2015,04,05,00,28,4.60
2015,04,05,00,29,4.60
2015,04,05,00,30,4.60
2015,04,05,00,31,4.60
2015,04,05,00,32,4.60
2015,04,05,00,33,4.60
2015,04,05,00,34,4.60
2015,04,05,00,35,4.70
2015,04,05,00,36,4.70
2015,04,05,00,37,4.70
2015,04,05,00,38,4.70
2015,04,05,00,39,4.70
2015,04,05,00,40,4.70
2015,04,05,00,41,4.70
2015,04,05,00,42,4.70
2015,04,05,00,43,4.70
2015,04,05,00,44,4.70
2015,04,05,00,45,4.70
2015,04,05,00,46,4.70
2015,04,05,00,47,4.70
2015,04,05,00,48,4.70
2015,04,05,00,49,4.70
2015,04,05,00,50,4.70
2015,04,05,00,51,4.70
2015,04,05,00,52,4.70
2015,04,05,00,53,4.70
2015,04,05,00,54,4.70
2015,04,05,00,55,4.70
2015,04,05,00,56,4.70
2015,04,05,00,57,4.70
2015,04,05,00,58,4.70
2015,04,05,00,59,4.70
2015,04,05,01,00,4.70
2015,04,05,01,01,4.70
2015,04,05,01,02,4.70
2015,04,05,01,03,4.70
2015,04,05,01,04,4.70
2015,04,05,01,05,4.70
2015,04,05,01,06,4.70
2015,04,05,01,07,4.70
2015,04,05,01,08,4.70
2015,04,05,01,09,4.70
2015,04,05,01,10,4.70
2015,04,05,01,11,4.70
2015,04,05,01,12,4.70
2015,04,05,01,13,4.70
2015,04,05,01,14,4.70
2015,04,05,01,15,4.70
2015,04,05,01,16,4.70
2015,04,05,01,17,4.70
2015,04,05,01,18,4.70
2015,04,05,01,19,4.60
2015,04,05,01,20,4.60
2015,04,05,01,21,4.60
2015,04,05,01,22,4.60
2015,04,05,01,23,4.60
2015,04,05,01,24,4.60
2015,04,05,01,25,4.60
2015,04,05,01,26,4.60
2015,04,05,01,27,4.50
2015,04,05,01,28,4.50
2015,04,05,01,29,4.50
2015,04,05,01,30,4.50
2015,04,05,01,31,4.40
2015,04,05,01,32,4.40
2015,04,05,01,33,4.40
2015,04,05,01,34,4.40
2015,04,05,01,35,4.40
2015,04,05,01,36,4.40
2015,04,05,01,37,4.40
2015,04,05,01,38,4.40
2015,04,05,01,39,4.40
2015,04,05,01,40,4.40
2015,04,05,01,41,4.40
2015,04,05,01,42,4.30
2015,04,05,01,43,4.30
2015,04,05,01,44,4.30
2015,04,05,01,45,4.30
2015,04,05,01,46,4.30
2015,04,05,01,47,4.30
2015,04,05,01,48,4.30
2015,04,05,01,49,4.30
2015,04,05,01,50,4.30
2015,04,05,01,51,4.30
2015,04,05,01,52,4.30
2015,04,05,01,53,4.30
2015,04,05,01,54,4.30
2015,04,05,01,55,4.30
2015,04,05,01,56,4.30
2015,04,05,01,57,4.30
2015,04,05,01,58,4.30
2015,04,05,01,59,4.30
2015,04,05,02,00,4.30
2015,04,05,02,01,4.30
2015,04,05,02,02,4.30
2015,04,05,02,03,4.30
2015,04,05,02,04,4.30
2015,04,05,02,05,4.30
2015,04,05,02,06,4.30
2015,04,05,02,07,4.30
2015,04,05,02,08,4.30
2015,04,05,02,09,4.30
2015,04,05,02,10,4.30
2015,04,05,02,11,4.30
2015,04,05,02,12,4.30
2015,04,05,02,13,4.30
2015,04,05,02,14,4.30
2015,04,05,02,15,4.30
2015,04,05,02,16,4.30
2015,04,05,02,17,4.30
2015,04,05,02,18,4.30
2015,04,05,02,19,4.30
2015,04,05,02,20,4.30
2015,04,05,02,21,4.30
2015,04,05,02,22,4.30
2015,04,05,02,23,4.30
2015,04,05,02,24,4.30
2015,04,05,02,25,4.30
2015,04,05,02,26,4.30
2015,04,05,02,27,4.30
2015,04,05,02,28,4.30
2015,04,05,02,29,4.30
2015,04,05,02,30,4.30
2015,04,05,02,31,4.30
2015,04,05,02,32,4.30
2015,04,05,02,33,4.30
2015,04,05,02,34,4.30
2015,04,05,02,35,4.30
2015,04,05,02,36,4.30
2015,04,05,02,37,4.20
2015,04,05,02,38,4.20
2015,04,05,02,39,4.20
2015,04,05,02,40,4.20
2015,04,05,02,41,4.20
2015,04,05,02,42,4.20
2015,04,05,02,43,4.20
2015,04,05,02,44,4.20
2015,04,05,02,45,4.20
2015,04,05,02,46,4.20
2015,04,05,02,47,4.20
2015,04,05,02,48,4.20
2015,04,05,02,49,4.20
2015,04,05,02,50,4.20
2015,04,05,02,51,4.20
2015,04,05,02,52,4.20
2015,04,05,02,53,4.20
2015,04,05,02,54,4.20
2015,04,05,02,55,4.20
2015,04,05,02,56,4.20
2015,04,05,02,57,4.20
2015,04,05,02,58,4.20
2015,04,05,02,59,4.20
2015,04,05,03,00,4.20
2015,04,05,03,01,4.20
2015,04,05,03,02,4.20
2015,04,05,03,03,4.20
2015,04,05,03,04,4.20
2015,04,05,03,05,4.20
2015,04,05,03,06,4.20
2015,04,05,03,07,4.20
2015,04,05,03,08,4.20
2015,04,05,03,09,4.20
2015,04,05,03,10,4.10
2015,04,05,03,11,4.10
2015,04,05,03,12,4.10
2015,04,05,03,13,4.10
2015,04,05,03,14,4.10
2015,04,05,03,15,4.10
2015,04,05,03,16,4.10
2015,04,05,03,17,4.10
2015,04,05,03,18,4.10
2015,04,05,03,19,4.10
2015,04,05,03,20,4.10
2015,04,05,03,21,4.10
2015,04,05,03,22,4.10
2015,04,05,03,23,4.10
2015,04,05,03,24,4.10
2015,04,05,03,25,4.10
2015,04,05,03,26,4.10
2015,04,05,03,27,4.10
2015,04,05,03,28,4.10
2015,04,05,03,29,4.10
2015,04,05,03,30,4.10
2015,04,05,03,31,4.10
2015,04,05,03,32,4.10
2015,04,05,03,33,4.10
2015,04,05,03,34,4.10
2015,04,05,03,35,4.10
2015,04,05,03,36,4.10
2015,04,05,03,37,4.10
2015,04,05,03,38,4.10
2015,04,05,03,39,4.10
2015,04,05,03,40,4.10
2015,04,05,03,41,4.10
2015,04,05,03,42,4.10
2015,04,05,03,43,4.10
2015,04,05,03,44,4.10
2015,04,05,03,45,4.10
2015,04,05,03,46,4.10
2015,04,05,03,47,4.10
2015,04,05,03,48,4.00
2015,04,05,03,49,4.00
2015,04,05,03,50,4.00
2015,04,05,03,51,4.00
2015,04,05,03,52,4.00
2015,04,05,03,53,4.00
2015,04,05,03,54,4.00
2015,04,05,03,55,4.00
2015,04,05,03,56,4.00
2015,04,05,03,57,4.00
2015,04,05,03,58,4.00
2015,04,05,03,59,4.00
2015,04,05,04,00,4.00
2015,04,05,04,01,4.00
2015,04,05,04,02,4.00
2015,04,05,04,03,4.00
2015,04,05,04,04,4.00
2015,04,05,04,05,4.00
2015,04,05,04,06,4.00
2015,04,05,04,07,4.00
2015,04,05,04,08,4.00
2015,04,05,04,09,4.00
2015,04,05,04,10,4.00
2015,04,05,04,11,4.00
2015,04,05,04,12,4.00
2015,04,05,04,13,4.00
2015,04,05,04,14,4.00
2015,04,05,04,15,4.00
2015,04,05,04,16,4.00
2015,04,05,04,17,4.00
2015,04,05,04,18,3.90
2015,04,05,04,19,4.00
2015,04,05,04,20,3.90
2015,04,05,04,21,3.90
2015,04,05,04,22,3.90
2015,04,05,04,23,3.90
2015,04,05,04,24,3.90
2015,04,05,04,25,4.00
2015,04,05,04,26,4.00
2015,04,05,04,27,3.90
2015,04,05,04,28,4.00
2015,04,05,04,29,4.00
2015,04,05,04,30,4.00
2015,04,05,04,31,4.00
2015,04,05,04,32,4.00
2015,04,05,04,33,4.00
2015,04,05,04,34,4.00
2015,04,05,04,35,4.00
2015,04,05,04,36,4.00
2015,04,05,04,37,4.00
2015,04,05,04,38,4.00
2015,04,05,04,39,4.00
2015,04,05,04,40,4.00
2015,04,05,04,41,4.00
2015,04,05,04,42,4.00
2015,04,05,04,43,4.00
2015,04,05,04,44,4.00
2015,04,05,04,45,3.90
2015,04,05,04,46,3.90
2015,04,05,04,47,3.90
2015,04,05,04,48,3.90
2015,04,05,04,49,3.90
2015,04,05,04,50,3.90
2015,04,05,04,51,3.90
2015,04,05,04,52,3.90
2015,04,05,04,53,3.90
2015,04,05,04,54,3.80
2015,04,05,04,55,3.80
2015,04,05,04,56,3.80
2015,04,05,04,57,3.80
2015,04,05,04,58,3.80
2015,04,05,04,59,3.80
2015,04,05,05,00,3.80
2015,04,05,05,01,3.80
2015,04,05,05,02,3.80
2015,04,05,05,03,3.80
2015,04,05,05,04,3.80
2015,04,05,05,05,3.80
2015,04,05,05,06,3.70
2015,04,05,05,07,3.70
2015,04,05,05,08,3.70
2015,04,05,05,09,3.70
2015,04,05,05,10,3.70
2015,04,05,05,11,3.70
2015,04,05,05,12,3.70
2015,04,05,05,13,3.70
2015,04,05,05,14,3.70
2015,04,05,05,15,3.70
2015,04,05,05,16,3.70
2015,04,05,05,17,3.70
2015,04,05,05,18,3.70
2015,04,05,05,19,3.70
2015,04,05,05,20,3.70
2015,04,05,05,21,3.70
2015,04,05,05,22,3.60
2015,04,05,05,23,3.60
2015,04,05,05,24,3.60
2015,04,05,05,25,3.60
2015,04,05,05,26,3.60
2015,04,05,05,27,3.60
2015,04,05,05,28,3.60
2015,04,05,05,29,3.60
2015,04,05,05,30,3.60
2015,04,05,05,31,3.60
2015,04,05,05,32,3.60
2015,04,05,05,33,3.60
2015,04,05,05,34,3.60
2015,04,05,05,35,3.60
2015,04,05,05,36,3.60
2015,04,05,05,37,3.60
2015,04,05,05,38,3.60
2015,04,05,05,39,3.60
2015,04,05,05,40,3.60
2015,04,05,05,41,3.60
2015,04,05,05,42,3.60
2015,04,05,05,43,3.60
2015,04,05,05,44,3.60
2015,04,05,05,45,3.60
2015,04,05,05,46,3.60
2015,04,05,05,47,3.60
2015,04,05,05,48,3.70
2015,04,05,05,49,3.70
2015,04,05,05,50,3.70
2015,04,05,05,51,3.70
2015,04,05,05,52,3.70
2015,04,05,05,53,3.70
2015,04,05,05,54,3.70
2015,04,05,05,55,3.70
2015,04,05,05,56,3.70
2015,04,05,05,57,3.70
2015,04,05,05,58,3.70
2015,04,05,05,59,3.70
2015,04,05,06,00,3.70
2015,04,05,06,01,3.70
2015,04,05,06,02,3.70
2015,04,05,06,03,3.70
2015,04,05,06,04,3.70
2015,04,05,06,05,3.70
2015,04,05,06,06,3.70
2015,04,05,06,07,3.70
2015,04,05,06,08,3.70
2015,04,05,06,09,3.70
2015,04,05,06,10,3.70
2015,04,05,06,11,3.70
2015,04,05,06,12,3.70
2015,04,05,06,13,3.70
2015,04,05,06,14,3.70
2015,04,05,06,15,3.70
2015,04,05,06,16,3.70
2015,04,05,06,17,3.70
2015,04,05,06,18,3.70
2015,04,05,06,19,3.70
2015,04,05,06,20,3.70
2015,04,05,06,21,3.70
2015,04,05,06,22,3.70
2015,04,05,06,23,3.70
2015,04,05,06,24,3.70
2015,04,05,06,25,3.70
2015,04,05,06,26,3.70
2015,04,05,06,27,3.70
2015,04,05,06,28,3.70
2015,04,05,06,29,3.70
2015,04,05,06,30,3.70
2015,04,05,06,31,3.70
2015,04,05,06,32,3.70
2015,04,05,06,33,3.70
2015,04,05,06,34,3.60
2015,04,05,06,35,3.60
2015,04,05,06,36,3.60
2015,04,05,06,37,3.60
2015,04,05,06,38,3.60
2015,04,05,06,39,3.60
2015,04,05,06,40,3.60
2015,04,05,06,41,3.50
2015,04,05,06,42,3.50
2015,04,05,06,43,3.50
2015,04,05,06,44,3.50
2015,04,05,06,45,3.50
2015,04,05,06,46,3.50
2015,04,05,06,47,3.40
2015,04,05,06,48,3.50
2015,04,05,06,49,3.40
2015,04,05,06,50,3.40
2015,04,05,06,51,3.40
2015,04,05,06,52,3.40
2015,04,05,06,53,3.40
2015,04,05,06,54,3.40
2015,04,05,06,55,3.40
2015,04,05,06,56,3.40
2015,04,05,06,57,3.40
2015,04,05,06,58,3.40
2015,04,05,06,59,3.40
2015,04,05,07,00,3.40
2015,04,05,07,01,3.40
2015,04,05,07,02,3.40
2015,04,05,07,03,3.40
2015,04,05,07,04,3.40
2015,04,05,07,05,3.40
2015,04,05,07,06,3.40
2015,04,05,07,07,3.40
2015,04,05,07,08,3.30
2015,04,05,07,09,3.30
2015,04,05,07,10,3.30
2015,04,05,07,11,3.30
2015,04,05,07,12,3.30
2015,04,05,07,13,3.30
2015,04,05,07,14,3.30
2015,04,05,07,15,3.30
2015,04,05,07,16,3.30
2015,04,05,07,17,3.30
2015,04,05,07,18,3.30
2015,04,05,07,19,3.30
2015,04,05,07,20,3.30
2015,04,05,07,21,3.20
2015,04,05,07,22,3.20
2015,04,05,07,23,3.20
2015,04,05,07,24,3.20
2015,04,05,07,25,3.20
2015,04,05,07,26,3.20
2015,04,05,07,27,3.20
2015,04,05,07,28,3.10
2015,04,05,07,29,3.10
2015,04,05,07,30,3.10
2015,04,05,07,31,3.10
2015,04,05,07,32,3.10
2015,04,05,07,33,3.10
2015,04,05,07,34,3.10
2015,04,05,07,35,3.10
2015,04,05,07,36,3.10
2015,04,05,07,37,3.10
2015,04,05,07,38,3.10
2015,04,05,07,39,3.00
2015,04,05,07,40,3.00
2015,04,05,07,41,3.00
2015,04,05,07,42,3.00
2015,04,05,07,43,3.00
2015,04,05,07,44,3.00
2015,04,05,07,45,3.00
2015,04,05,07,46,3.00
2015,04,05,07,47,3.10
2015,04,05,07,48,3.10
2015,04,05,07,49,3.10
2015,04,05,07,50,3.10
2015,04,05,07,51,3.10
2015,04,05,07,52,3.10
2015,04,05,07,53,3.10
2015,04,05,07,54,3.10
2015,04,05,07,55,3.10
2015,04,05,07,56,3.10
2015,04,05,07,57,3.10
2015,04,05,07,58,3.10
2015,04,05,07,59,3.10
2015,04,05,08,00,3.10
2015,04,05,08,01,3.10
2015,04,05,08,02,3.10
2015,04,05,08,03,3.10
2015,04,05,08,04,3.10
2015,04,05,08,05,3.10
2015,04,05,08,06,3.10
2015,04,05,08,07,3.10
2015,04,05,08,08,3.10
2015,04,05,08,09,3.10
2015,04,05,08,10,3.10
2015,04,05,08,11,3.20
2015,04,05,08,12,3.20
2015,04,05,08,13,3.20
2015,04,05,08,14,3.20
2015,04,05,08,15,3.20
2015,04,05,08,16,3.20
2015,04,05,08,17,3.20
2015,04,05,08,18,3.20
2015,04,05,08,19,3.20
2015,04,05,08,20,3.20
2015,04,05,08,21,3.30
2015,04,05,08,22,3.30
2015,04,05,08,23,3.30
2015,04,05,08,24,3.30
2015,04,05,08,25,3.30
2015,04,05,08,26,3.40
2015,04,05,08,27,3.40
2015,04,05,08,28,3.40
2015,04,05,08,29,3.40
2015,04,05,08,30,3.50
2015,04,05,08,31,3.50
2015,04,05,08,32,3.50
2015,04,05,08,33,3.50
2015,04,05,08,34,3.50
2015,04,05,08,35,3.50
2015,04,05,08,36,3.50
2015,04,05,08,37,3.50
2015,04,05,08,38,3.50
2015,04,05,08,39,3.60
2015,04,05,08,40,3.60
2015,04,05,08,41,3.60
2015,04,05,08,42,3.60
2015,04,05,08,43,3.70
2015,04,05,08,44,3.70
2015,04,05,08,45,3.70
2015,04,05,08,46,3.70
2015,04,05,08,47,3.70
2015,04,05,08,48,3.70
2015,04,05,08,49,3.70
2015,04,05,08,50,3.70
2015,04,05,08,51,3.70
2015,04,05,08,52,3.70
2015,04,05,08,53,3.70
2015,04,05,08,54,3.70
2015,04,05,08,55,3.70
2015,04,05,08,56,3.70
2015,04,05,08,57,3.70
2015,04,05,08,58,3.70
2015,04,05,08,59,3.70
2015,04,05,09,00,3.70
2015,04,05,09,01,3.80
2015,04,05,09,02,3.80
2015,04,05,09,03,3.80
2015,04,05,09,04,3.80
2015,04,05,09,05,3.80
2015,04,05,09,06,3.80
2015,04,05,09,07,3.80
2015,04,05,09,08,3.90
2015,04,05,09,09,3.80
2015,04,05,09,10,3.80
2015,04,05,09,11,3.80
2015,04,05,09,12,3.80
2015,04,05,09,13,3.90
2015,04,05,09,14,3.90
2015,04,05,09,15,3.90
2015,04,05,09,16,3.90
2015,04,05,09,17,4.00
2015,04,05,09,18,4.00
2015,04,05,09,19,4.00
2015,04,05,09,20,4.10
2015,04,05,09,21,4.10
2015,04,05,09,22,4.10
2015,04,05,09,23,4.20
2015,04,05,09,24,4.20
2015,04,05,09,25,4.20
2015,04,05,09,26,4.20
2015,04,05,09,27,4.20
2015,04,05,09,28,4.20
2015,04,05,09,29,4.20
2015,04,05,09,30,4.20
2015,04,05,09,31,4.30
2015,04,05,09,32,4.30
2015,04,05,09,33,4.30
2015,04,05,09,34,4.30
2015,04,05,09,35,4.30
2015,04,05,09,36,4.30
2015,04,05,09,37,4.40
2015,04,05,09,38,4.40
2015,04,05,09,39,4.40
2015,04,05,09,40,4.40
2015,04,05,09,41,4.50
2015,04,05,09,42,4.50
2015,04,05,09,43,4.50
2015,04,05,09,44,4.60
2015,04,05,09,45,4.60
2015,04,05,09,46,4.60
2015,04,05,09,47,4.60
2015,04,05,09,48,4.70
2015,04,05,09,49,4.70
2015,04,05,09,50,4.70
2015,04,05,09,51,4.70
2015,04,05,09,52,4.70
2015,04,05,09,53,4.70
2015,04,05,09,54,4.70
2015,04,05,09,55,4.70
2015,04,05,09,56,4.70
2015,04,05,09,57,4.70
2015,04,05,09,58,4.70
2015,04,05,09,59,4.70
2015,04,05,10,00,4.80
2015,04,05,10,01,4.80
2015,04,05,10,02,4.80
2015,04,05,10,03,4.90
2015,04,05,10,04,4.90
2015,04,05,10,05,4.90
2015,04,05,10,06,4.90
2015,04,05,10,07,5.00
2015,04,05,10,08,5.00
2015,04,05,10,09,5.00
2015,04,05,10,10,5.10
2015,04,05,10,11,5.10
2015,04,05,10,12,5.20
2015,04,05,10,13,5.20
2015,04,05,10,14,5.30
2015,04,05,10,15,5.30
2015,04,05,10,16,5.30
2015,04,05,10,17,5.40
2015,04,05,10,18,5.40
2015,04,05,10,19,5.40
2015,04,05,10,20,5.40
2015,04,05,10,21,5.40
2015,04,05,10,22,5.40
2015,04,05,10,23,5.40
2015,04,05,10,24,5.40
2015,04,05,10,25,5.50
2015,04,05,10,26,5.50
2015,04,05,10,27,5.60
2015,04,05,10,28,5.60
2015,04,05,10,29,5.70
2015,04,05,10,30,5.70
2015,04,05,10,31,5.80
2015,04,05,10,32,5.80
2015,04,05,10,33,5.90
2015,04,05,10,34,6.00
2015,04,05,10,35,6.00
2015,04,05,10,36,6.10
2015,04,05,10,37,6.20
2015,04,05,10,38,6.20
2015,04,05,10,39,6.20
2015,04,05,10,40,6.30
2015,04,05,10,41,6.30
2015,04,05,10,42,6.40
2015,04,05,10,43,6.50
2015,04,05,10,44,6.50
2015,04,05,10,45,6.60
2015,04,05,10,46,6.70
2015,04,05,10,47,6.70
2015,04,05,10,48,6.80
2015,04,05,10,49,6.80
2015,04,05,10,50,6.80
2015,04,05,10,51,6.80
2015,04,05,10,52,6.90
2015,04,05,10,53,6.90
2015,04,05,10,54,6.90
2015,04,05,10,55,7.00
2015,04,05,10,56,7.10
2015,04,05,10,57,7.10
2015,04,05,10,58,7.10
2015,04,05,10,59,7.10
2015,04,05,11,00,7.10
2015,04,05,11,01,7.10
2015,04,05,11,02,7.10
2015,04,05,11,03,7.10
2015,04,05,11,04,7.10
2015,04,05,11,05,7.20
2015,04,05,11,06,7.30
2015,04,05,11,07,7.40
2015,04,05,11,08,7.60
2015,04,05,11,09,7.70
2015,04,05,11,10,7.80
2015,04,05,11,11,7.90
2015,04,05,11,12,7.90
2015,04,05,11,13,7.90
2015,04,05,11,14,8.00
2015,04,05,11,15,8.00
2015,04,05,11,16,8.10
2015,04,05,11,17,8.10
2015,04,05,11,18,8.20
2015,04,05,11,19,8.30
2015,04,05,11,20,8.40
2015,04,05,11,21,8.40
2015,04,05,11,22,8.50
2015,04,05,11,23,8.50
2015,04,05,11,24,8.60
2015,04,05,11,25,8.50
2015,04,05,11,26,8.50
2015,04,05,11,27,8.60
2015,04,05,11,28,8.60
2015,04,05,11,29,8.70
2015,04,05,11,30,8.70
2015,04,05,11,31,8.80
2015,04,05,11,32,8.80
2015,04,05,11,33,8.80
2015,04,05,11,34,8.80
2015,04,05,11,35,8.80
2015,04,05,11,36,8.90
2015,04,05,11,37,8.90
2015,04,05,11,38,8.90
2015,04,05,11,39,8.90
2015,04,05,11,40,8.90
2015,04,05,11,41,8.90
2015,04,05,11,42,9.00
2015,04,05,11,43,9.00
2015,04,05,11,44,9.10
2015,04,05,11,45,9.10
2015,04,05,11,46,9.30
2015,04,05,11,47,9.30
2015,04,05,11,48,9.30
2015,04,05,11,49,9.30
2015,04,05,11,50,9.30
2015,04,05,11,51,9.30
2015,04,05,11,52,9.30
2015,04,05,11,53,9.30
2015,04,05,11,54,9.30
2015,04,05,11,55,9.30
2015,04,05,11,56,9.30
2015,04,05,11,57,9.30
2015,04,05,11,58,9.30
2015,04,05,11,59,9.30
2015,04,05,12,00,9.40
2015,04,05,12,01,9.50
2015,04,05,12,02,9.60
2015,04,05,12,03,9.70
2015,04,05,12,04,9.70
2015,04,05,12,05,9.80
2015,04,05,12,06,9.90
2015,04,05,12,07,10.00
2015,04,05,12,08,10.00
2015,04,05,12,09,10.00
2015,04,05,12,10,10.00
2015,04,05,12,11,10.00
2015,04,05,12,12,10.00
2015,04,05,12,13,10.10
2015,04,05,12,14,10.10
2015,04,05,12,15,10.20
2015,04,05,12,16,10.20
2015,04,05,12,17,10.30
2015,04,05,12,18,10.30
2015,04,05,12,19,10.40
2015,04,05,12,20,10.40
2015,04,05,12,21,10.40
2015,04,05,12,22,10.40
2015,04,05,12,23,10.50
2015,04,05,12,24,10.50
2015,04,05,12,25,10.60
2015,04,05,12,26,10.60
2015,04,05,12,27,10.60
2015,04,05,12,28,10.60
2015,04,05,12,29,10.70
2015,04,05,12,30,10.70
2015,04,05,12,31,10.80
2015,04,05,12,32,10.90
2015,04,05,12,33,10.90
2015,04,05,12,34,10.90
2015,04,05,12,35,10.90
2015,04,05,12,36,11.00
2015,04,05,12,37,11.00
2015,04,05,12,38,11.00
2015,04,05,12,39,11.00
2015,04,05,12,40,11.00
2015,04,05,12,41,11.00
2015,04,05,12,42,11.10
2015,04,05,12,43,11.20
2015,04,05,12,44,11.20
2015,04,05,12,45,11.40
2015,04,05,12,46,11.50
2015,04,05,12,47,11.50
2015,04,05,12,48,11.50
2015,04,05,12,49,11.50
2015,04,05,12,50,11.40
2015,04,05,12,51,11.30
2015,04,05,12,52,11.30
2015,04,05,12,53,11.30
2015,04,05,12,54,11.30
2015,04,05,12,55,11.40
2015,04,05,12,56,11.50
2015,04,05,12,57,11.60
2015,04,05,12,58,11.70
2015,04,05,12,59,11.80
2015,04,05,13,00,11.80
2015,04,05,13,01,11.80
2015,04,05,13,02,11.80
2015,04,05,13,03,11.80
2015,04,05,13,04,11.90
2015,04,05,13,05,11.90
2015,04,05,13,06,11.80
2015,04,05,13,07,11.80
2015,04,05,13,08,11.80
2015,04,05,13,09,11.80
2015,04,05,13,10,11.80
2015,04,05,13,11,11.80
2015,04,05,13,12,11.80
2015,04,05,13,13,11.80
2015,04,05,13,14,11.80
2015,04,05,13,15,11.80
2015,04,05,13,16,11.80
2015,04,05,13,17,11.80
2015,04,05,13,18,11.80
2015,04,05,13,19,11.90
2015,04,05,13,20,11.90
2015,04,05,13,21,11.90
2015,04,05,13,22,11.90
2015,04,05,13,23,11.90
2015,04,05,13,24,12.00
2015,04,05,13,25,12.10
2015,04,05,13,26,12.20
2015,04,05,13,27,12.20
2015,04,05,13,28,12.30
2015,04,05,13,29,12.30
2015,04,05,13,30,12.40
2015,04,05,13,31,12.40
2015,04,05,13,32,12.30
2015,04,05,13,33,12.30
2015,04,05,13,34,12.30
2015,04,05,13,35,12.40
2015,04,05,13,36,12.50
2015,04,05,13,37,12.50
2015,04,05,13,38,12.50
2015,04,05,13,39,12.40
2015,04,05,13,40,12.50
2015,04,05,13,41,12.50
2015,04,05,13,42,12.50
2015,04,05,13,43,12.60
2015,04,05,13,44,12.70
2015,04,05,13,45,12.70
2015,04,05,13,46,12.80
2015,04,05,13,47,12.90
2015,04,05,13,48,12.90
2015,04,05,13,49,12.80
2015,04,05,13,50,12.60
2015,04,05,13,51,12.60
2015,04,05,13,52,12.50
2015,04,05,13,53,12.40
2015,04,05,13,54,12.30
2015,04,05,13,55,12.30
2015,04,05,13,56,12.30
2015,04,05,13,57,12.30
2015,04,05,13,58,12.30
2015,04,05,13,59,12.20
2015,04,05,14,00,12.20
2015,04,05,14,01,12.20
2015,04,05,14,02,12.30
2015,04,05,14,03,12.30
2015,04,05,14,04,12.30
2015,04,05,14,05,12.30
2015,04,05,14,06,12.20
2015,04,05,14,07,12.10
2015,04,05,14,08,12.00
2015,04,05,14,09,11.90
2015,04,05,14,10,11.90
2015,04,05,14,11,11.90
2015,04,05,14,12,11.80
2015,04,05,14,13,11.80
2015,04,05,14,14,11.90
2015,04,05,14,15,11.90
2015,04,05,14,16,11.90
2015,04,05,14,17,11.90
2015,04,05,14,18,11.90
2015,04,05,14,19,11.90
2015,04,05,14,20,12.00
2015,04,05,14,21,12.00
2015,04,05,14,22,12.10
2015,04,05,14,23,12.10
2015,04,05,14,24,12.20
2015,04,05,14,25,12.20
2015,04,05,14,26,12.30
2015,04,05,14,27,12.30
2015,04,05,14,28,12.40
2015,04,05,14,29,12.50
2015,04,05,14,30,12.50
2015,04,05,14,31,12.50
2015,04,05,14,32,12.40
2015,04,05,14,33,12.40
2015,04,05,14,34,12.40
2015,04,05,14,35,12.40
2015,04,05,14,36,12.40
2015,04,05,14,37,12.40
2015,04,05,14,38,12.40
2015,04,05,14,39,12.40
2015,04,05,14,40,12.50
2015,04,05,14,41,12.50
2015,04,05,14,42,12.50
2015,04,05,14,43,12.60
2015,04,05,14,44,12.60
2015,04,05,14,45,12.50
2015,04,05,14,46,12.50
2015,04,05,14,47,12.60
2015,04,05,14,48,12.60
2015,04,05,14,49,12.60
2015,04,05,14,50,12.70
2015,04,05,14,51,12.80
2015,04,05,14,52,12.90
2015,04,05,14,53,12.90
2015,04,05,14,54,12.90
2015,04,05,14,55,12.90
2015,04,05,14,56,12.90
2015,04,05,14,57,12.90
2015,04,05,14,58,13.00
2015,04,05,14,59,13.00
2015,04,05,15,00,13.10
2015,04,05,15,01,13.10
2015,04,05,15,02,13.20
2015,04,05,15,03,13.20
2015,04,05,15,04,13.20
2015,04,05,15,05,13.20
2015,04,05,15,06,13.20
2015,04,05,15,07,13.20
2015,04,05,15,08,13.20
2015,04,05,15,09,13.20
2015,04,05,15,10,13.10
2015,04,05,15,11,13.00
2015,04,05,15,12,13.00
2015,04,05,15,13,12.90
2015,04,05,15,14,12.80
2015,04,05,15,15,12.80
2015,04,05,15,16,12.70
2015,04,05,15,17,12.60
2015,04,05,15,18,12.60
2015,04,05,15,19,12.60
2015,04,05,15,20,12.60
2015,04,05,15,21,12.60
2015,04,05,15,22,12.70
2015,04,05,15,23,12.80
2015,04,05,15,24,12.80
2015,04,05,15,25,12.90
2015,04,05,15,26,12.90
2015,04,05,15,27,13.00
2015,04,05,15,28,13.10
2015,04,05,15,29,13.10
2015,04,05,15,30,13.10
2015,04,05,15,31,13.00
2015,04,05,15,32,13.00
2015,04,05,15,33,12.90
2015,04,05,15,34,12.90
2015,04,05,15,35,12.80
2015,04,05,15,36,12.70
2015,04,05,15,37,12.70
2015,04,05,15,38,12.60
2015,04,05,15,39,12.60
2015,04,05,15,40,12.70
2015,04,05,15,41,12.70
2015,04,05,15,42,12.70
2015,04,05,15,43,12.80
2015,04,05,15,44,12.80
2015,04,05,15,45,12.80
2015,04,05,15,46,12.80
2015,04,05,15,47,12.90
2015,04,05,15,48,12.90
2015,04,05,15,49,13.00
2015,04,05,15,50,13.00
2015,04,05,15,51,13.10
2015,04,05,15,52,13.10
2015,04,05,15,53,13.20
2015,04,05,15,54,13.20
2015,04,05,15,55,13.10
2015,04,05,15,56,13.10
2015,04,05,15,57,12.90
2015,04,05,15,58,12.90
2015,04,05,15,59,12.90
2015,04,05,16,00,12.90
2015,04,05,16,01,12.90
2015,04,05,16,02,12.90
2015,04,05,16,03,12.90
2015,04,05,16,04,13.00
2015,04,05,16,05,13.00
2015,04,05,16,06,13.00
2015,04,05,16,07,13.00
2015,04,05,16,08,13.00
2015,04,05,16,09,13.10
2015,04,05,16,10,13.10
2015,04,05,16,11,13.20
2015,04,05,16,12,13.20
2015,04,05,16,13,13.20
2015,04,05,16,14,13.30
2015,04,05,16,15,13.30
2015,04,05,16,16,13.30
2015,04,05,16,17,13.30
2015,04,05,16,18,13.40
2015,04,05,16,19,13.40
2015,04,05,16,20,13.50
2015,04,05,16,21,13.50
2015,04,05,16,22,13.60
2015,04,05,16,23,13.50
2015,04,05,16,24,13.50
2015,04,05,16,25,13.40
2015,04,05,16,26,13.40
2015,04,05,16,27,13.40
2015,04,05,16,28,13.40
2015,04,05,16,29,13.40
2015,04,05,16,30,13.40
2015,04,05,16,31,13.40
2015,04,05,16,32,13.40
2015,04,05,16,33,13.30
2015,04,05,16,34,13.30
2015,04,05,16,35,13.20
2015,04,05,16,36,13.20
2015,04,05,16,37,13.10
2015,04,05,16,38,13.00
2015,04,05,16,39,13.00
2015,04,05,16,40,13.00
2015,04,05,16,41,13.00
2015,04,05,16,42,13.10
2015,04,05,16,43,13.20
2015,04,05,16,44,13.20
2015,04,05,16,45,13.20
2015,04,05,16,46,13.30
2015,04,05,16,47,13.30
2015,04,05,16,48,13.30
2015,04,05,16,49,13.30
2015,04,05,16,50,13.30
2015,04,05,16,51,13.30
2015,04,05,16,52,13.40
2015,04,05,16,53,13.40
2015,04,05,16,54,13.40
2015,04,05,16,55,13.40
2015,04,05,16,56,13.40
2015,04,05,16,57,13.30
2015,04,05,16,58,13.20
2015,04,05,16,59,13.20
2015,04,05,17,00,13.20
2015,04,05,17,01,13.20
2015,04,05,17,02,13.20
2015,04,05,17,03,13.30
2015,04,05,17,04,13.30
2015,04,05,17,05,13.30
2015,04,05,17,06,13.30
2015,04,05,17,07,13.40
2015,04,05,17,08,13.40
2015,04,05,17,09,13.50
2015,04,05,17,10,13.50
2015,04,05,17,11,13.60
2015,04,05,17,12,13.60
2015,04,05,17,13,13.70
2015,04,05,17,14,13.70
2015,04,05,17,15,13.70
2015,04,05,17,16,13.70
2015,04,05,17,17,13.70
2015,04,05,17,18,13.60
2015,04,05,17,19,13.60
2015,04,05,17,20,13.50
2015,04,05,17,21,13.40
2015,04,05,17,22,13.30
2015,04,05,17,23,13.30
2015,04,05,17,24,13.20
2015,04,05,17,25,13.20
2015,04,05,17,26,13.20
2015,04,05,17,27,13.20
2015,04,05,17,28,13.10
2015,04,05,17,29,13.00
2015,04,05,17,30,12.80
2015,04,05,17,31,12.70
2015,04,05,17,32,12.70
2015,04,05,17,33,12.60
2015,04,05,17,34,12.50
2015,04,05,17,35,12.30
2015,04,05,17,36,12.10
2015,04,05,17,37,12.00
2015,04,05,17,38,11.90
2015,04,05,17,39,11.80
2015,04,05,17,40,11.70
2015,04,05,17,41,11.60
2015,04,05,17,42,11.60
2015,04,05,17,43,11.60
2015,04,05,17,44,11.50
2015,04,05,17,45,11.50
2015,04,05,17,46,11.50
2015,04,05,17,47,11.50
2015,04,05,17,48,11.60
2015,04,05,17,49,11.60
2015,04,05,17,50,11.70
2015,04,05,17,51,11.70